Location: Puketoi
(40.5833°S, 176.0167°E)
Time: 15:36:33
(UTC+00:00)

Resurs 1-4 Rocket - Pass Details

Date: 08 February 2023
Orbit: 800 x 813 km, 98.7° (Epoch: 22 March)

Event Time Altitude Azimuth Distance (km) Brightness Sun altitude
Exits shadow 14:04:25 20° 235° (SW) 1,821 4.0 -30.3°
Drops below altitude 10° 14:06:33 10° 217° (SW) 2,433 4.9 -30.1°
Sets 14:09:15 0° 205° (SSW) 3,372 5.8 -29.9°
